SM7GXQ Weather Reports


time (UTC)temp
C
wind
direction
speed
KPH
gust
KPH
rain 1hr
cm
rain 24hr
cm
rain mn
cm
humidity
%
barometer
mb
20260506154504 9 77 8.0 24.1 0.00 0.00 0.00 46 1011.3
20260506151504 10 82 8.0 20.9 0.00 0.00 0.00 51 1011.3
20260506144504 10 68 12.9 22.5 0.00 0.00 0.00 51 1011.3
20260506134504 10 111 11.3 27.4 0.00 0.00 0.00 47 1011.2
20260506133005 10 108 8.0 22.5 0.00 0.00 0.00 46 1011.2
20260506123005 11 68 14.5 27.4 0.00 0.00 0.00 42 1011.2
20260506120004 11 75 14.5 22.5 0.00 0.00 0.00 42 1011.3
20260506114504 11 59 9.7 32.2 0.00 0.00 0.00 45 1011.4
20260506111505 11 92 8.0 22.5 0.00 0.00 0.00 47 1011.6
20260506110004 10 86 11.3 20.9 0.00 0.00 0.00 47 1011.6
20260506104505 10 69 11.3 24.1 0.00 0.00 0.00 48 1011.7
20260506103005 10 78 11.3 24.1 0.00 0.00 0.00 48 1011.8
20260506100006 10 69 12.9 24.1 0.00 0.00 0.00 50 1011.7
20260506094504 10 84 14.5 22.5 0.00 0.00 0.00 49 1011.6
20260506091504 10 86 6.4 20.9 0.00 0.00 0.00 52 1011.6
20260506090004 10 66 11.3 22.5 0.00 0.00 0.00 49 1011.6
20260506083005 10 75 6.4 20.9 0.00 0.00 0.00 51 1011.3
20260506081505 10 91 4.8 19.3 0.00 0.00 0.00 52 1011.3
20260506071504 10 85 11.3 19.3 0.00 0.00 0.00 51 1011.3
20260506040004 6 63 4.8 11.3 0.00 0.00 0.00 77 1010.9
20260506034504 6 66 6.4 14.5 0.00 0.00 0.00 77 1010.6
20260506033005 6 73 6.4 16.1 0.00 0.00 0.00 77 1010.3
20260506031505 6 68 4.8 22.5 0.00 0.00 0.00 78 1010.3
20260506030005 6 69 8.0 19.3 0.00 0.00 0.00 81 1010.3
20260506020004 6 86 4.8 19.3 0.00 0.00 0.00 92 1010.3
20260506014504 6 85 4.8 16.1 0.00 0.00 0.00 93 1010.2
20260506011504 6 79 4.8 12.9 0.00 0.00 0.00 94 1009.8
20260505234503 6 68 8.0 12.9 0.00 0.00 0.00 93 1009.2
20260505231504 6 71 9.7 16.1 0.00 0.00 0.00 93 1009.1
20260505230004 6 63 4.8 9.7 0.00 0.00 0.00 92 1009.1
20260505224504 6 56 3.2 4.8 0.00 0.00 0.00 91 1009.1
20260505221504 6 81 3.2 4.8 0.00 0.00 0.00 91 1009.1
20260505214504 6 50 0.0 4.8 0.00 0.00 0.00 91 1008.7
20260505213005 6 98 1.6 4.8 0.00 0.00 0.00 90 1008.7
20260505211504 7 84 1.6 3.2 0.00 0.00 0.00 89 1008.7
20260505210005 7 47 0.0 4.8 0.00 0.00 0.00 89 1008.4
20260505204504 7 58 1.6 9.7 0.00 0.00 0.00 88 1008.4
20260505201504 7 100 3.2 9.7 0.00 0.00 0.00 86 1008.3
20260505193005 9 107 1.6 11.3 0.00 0.00 0.00 79 1007.9
20260505184503 11 107 3.2 11.3 0.00 0.00 0.00 69 1007.7
20260505181503 12 86 4.8 12.9 0.00 0.00 0.00 64 1007.7
20260505180003 12 123 3.2 12.9 0.00 0.00 0.00 62 1007.6
20260505173004 13 90 4.8 16.1 0.00 0.00 0.00 60 1007.5
20260505171503 13 85 8.0 12.9 0.00 0.00 0.00 57 1007.4
20260505170004 14 76 9.7 19.3 0.00 0.00 0.00 55 1007.3
20260505163004 14 133 4.8 14.5 0.00 0.00 0.00 54 1007.4